CEB9 RPLL-VHHH

Flight info

Callsign CEB9
Flight time 1h 36m
Altitude 34000
Route CAB2R CAB A461 NOMAN V533 BETTY
Aircraft A321/M-SDE3FGHIRWY/LB1

Departure

Time 2026-05-05 01:01
Airport Ninoy Aquino International Airport (RPLL)

Arrival

Time 2026-05-05 02:38
Airport Hong Kong International Airport (VHHH)
Time Latitude Longitude Altitude Speed Heading
2026-05-05 00:28 14.51699 121.01655 69 ft 0 kts 226°
2026-05-05 00:49 14.51702 121.01658 68 ft 3 kts 226°
2026-05-05 00:49 14.51721 121.01678 68 ft 4 kts 225°
2026-05-05 00:50 14.51737 121.01694 61 ft 3 kts 223°
2026-05-05 00:50 14.51757 121.01705 68 ft 4 kts 167°
2026-05-05 00:50 14.51778 121.01693 59 ft 3 kts 135°
2026-05-05 00:50 14.51795 121.01676 65 ft 1 kts 135°
2026-05-05 00:53 14.51794 121.01677 68 ft 2 kts 135°
2026-05-05 00:54 14.51766 121.01705 62 ft 9 kts 135°
2026-05-05 00:54 14.51709 121.01764 67 ft 12 kts 139°
2026-05-05 00:54 14.51635 121.01775 61 ft 11 kts 203°
2026-05-05 00:54 14.51582 121.01730 62 ft 9 kts 222°
2026-05-05 00:55 14.51535 121.01684 63 ft 9 kts 224°
2026-05-05 00:55 14.51492 121.01640 68 ft 9 kts 224°
2026-05-05 00:55 14.51446 121.01614 60 ft 7 kts 172°
2026-05-05 00:55 14.51408 121.01641 66 ft 9 kts 137°
2026-05-05 00:56 14.51344 121.01706 66 ft 18 kts 135°
2026-05-05 00:56 14.51242 121.01810 61 ft 23 kts 135°
2026-05-05 00:56 14.51130 121.01927 64 ft 21 kts 134°
2026-05-05 00:56 14.51064 121.01985 69 ft 11 kts 163°
2026-05-05 00:57 14.51017 121.01945 63 ft 9 kts 240°
2026-05-05 00:57 14.50973 121.01866 69 ft 17 kts 240°
2026-05-05 00:57 14.50902 121.01738 61 ft 23 kts 240°
2026-05-05 00:57 14.50813 121.01577 65 ft 28 kts 240°
2026-05-05 00:58 14.50705 121.01384 64 ft 34 kts 240°
2026-05-05 00:58 14.50580 121.01160 67 ft 38 kts 240°
2026-05-05 00:58 14.50447 121.00921 66 ft 38 kts 240°
2026-05-05 00:58 14.50318 121.00690 66 ft 36 kts 240°
2026-05-05 00:59 14.50194 121.00468 64 ft 35 kts 240°
2026-05-05 00:59 14.50076 121.00255 63 ft 33 kts 240°
2026-05-05 00:59 14.49966 121.00058 62 ft 28 kts 240°
2026-05-05 00:59 14.49901 120.99968 67 ft 13 kts 203°
2026-05-05 01:00 14.49822 120.99997 62 ft 12 kts 141°
2026-05-05 01:00 14.49818 121.00064 66 ft 10 kts 65°
2026-05-05 01:00 14.49837 121.00099 69 ft 8 kts 60°
2026-05-05 01:00 14.49957 121.00314 60 ft 68 kts 60°
2026-05-05 01:01 14.50294 121.00921 65 ft 124 kts 60°
2026-05-05 01:01 14.50798 121.01829 66 ft 166 kts 60°
2026-05-05 01:01 14.51378 121.02903 471 ft 173 kts 61°
2026-05-05 01:01 14.51957 121.04003 962 ft 179 kts 62°
2026-05-05 01:02 14.52543 121.05122 1422 ft 177 kts 62°
2026-05-05 01:02 14.53157 121.06233 1820 ft 183 kts 61°
2026-05-05 01:02 14.53831 121.07417 1952 ft 199 kts 60°
2026-05-05 01:02 14.54564 121.08700 2072 ft 216 kts 60°
2026-05-05 01:03 14.55395 121.10084 2186 ft 240 kts 51°
2026-05-05 01:03 14.56819 121.11112 2542 ft 263 kts 18°
2026-05-05 01:03 14.58639 121.11169 3235 ft 271 kts 346°
2026-05-05 01:03 14.60369 121.10319 3910 ft 278 kts 333°
2026-05-05 01:04 14.62046 121.09301 4586 ft 282 kts 332°
2026-05-05 01:04 14.65434 121.07152 5818 ft 290 kts 331°
2026-05-05 01:04 14.67161 121.06055 6412 ft 293 kts 330°
2026-05-05 01:05 14.68911 121.04953 6986 ft 296 kts 331°
2026-05-05 01:05 14.70686 121.03843 7561 ft 299 kts 331°
2026-05-05 01:05 14.72481 121.02728 8123 ft 303 kts 330°
2026-05-05 01:05 14.74293 121.01603 8692 ft 305 kts 330°
2026-05-05 01:06 14.76121 121.00468 9240 ft 308 kts 330°
2026-05-05 01:06 14.77970 120.99321 9809 ft 311 kts 330°
2026-05-05 01:06 14.79840 120.98161 10198 ft 320 kts 330°
2026-05-05 01:06 14.81802 120.96943 10311 ft 337 kts 330°
2026-05-05 01:07 14.83862 120.95663 10451 ft 354 kts 330°
2026-05-05 01:07 14.86018 120.94323 10569 ft 369 kts 330°
2026-05-05 01:07 14.88265 120.92926 10695 ft 384 kts 330°
2026-05-05 01:07 14.90600 120.91476 10808 ft 398 kts 330°
2026-05-05 01:08 14.93009 120.89978 10929 ft 410 kts 330°
2026-05-05 01:08 14.95484 120.88440 11126 ft 419 kts 330°
2026-05-05 01:08 14.97963 120.86898 11497 ft 422 kts 330°
2026-05-05 01:08 15.00485 120.85329 11917 ft 423 kts 329°
2026-05-05 01:09 15.03007 120.83755 12323 ft 424 kts 329°
2026-05-05 01:09 15.05539 120.82170 12709 ft 427 kts 329°
2026-05-05 01:09 15.08116 120.80558 13083 ft 428 kts 329°
2026-05-05 01:09 15.10669 120.78965 13471 ft 429 kts 329°
2026-05-05 01:10 15.13223 120.77371 13854 ft 429 kts 329°
2026-05-05 01:10 15.15752 120.75794 14184 ft 431 kts 329°
2026-05-05 01:10 15.18325 120.74189 14493 ft 433 kts 329°
2026-05-05 01:10 15.20909 120.72579 14821 ft 434 kts 329°
2026-05-05 01:11 15.23502 120.70961 15120 ft 436 kts 329°
2026-05-05 01:11 15.26107 120.69333 15400 ft 439 kts 329°
2026-05-05 01:11 15.28734 120.67691 15693 ft 441 kts 329°
2026-05-05 01:11 15.31365 120.66048 15981 ft 444 kts 329°
2026-05-05 01:12 15.34013 120.64394 16316 ft 444 kts 329°
2026-05-05 01:12 15.36672 120.62733 16594 ft 447 kts 329°
2026-05-05 01:12 15.39334 120.61067 16892 ft 449 kts 329°
2026-05-05 01:12 15.42017 120.59388 17171 ft 451 kts 329°
2026-05-05 01:13 15.44708 120.57703 17453 ft 454 kts 329°
2026-05-05 01:13 15.47421 120.56003 17767 ft 455 kts 329°
2026-05-05 01:13 15.50131 120.54309 18056 ft 457 kts 328°
2026-05-05 01:13 15.52858 120.52604 18290 ft 460 kts 328°
2026-05-05 01:14 15.55601 120.50885 18527 ft 461 kts 328°
2026-05-05 01:14 15.58352 120.49163 18751 ft 463 kts 328°
2026-05-05 01:14 15.61114 120.47435 18999 ft 464 kts 328°
2026-05-05 01:14 15.63882 120.45699 19236 ft 465 kts 328°
2026-05-05 01:15 15.66659 120.43954 19440 ft 468 kts 328°
2026-05-05 01:15 15.69446 120.42203 19656 ft 470 kts 328°
2026-05-05 01:15 15.72247 120.40444 19881 ft 471 kts 328°
2026-05-05 01:15 15.75055 120.38682 20094 ft 473 kts 328°
2026-05-05 01:16 15.77877 120.36911 20320 ft 474 kts 328°
2026-05-05 01:16 15.80701 120.35138 20513 ft 475 kts 328°
2026-05-05 01:16 15.83503 120.33377 20703 ft 477 kts 327°
2026-05-05 01:16 15.86387 120.31562 20927 ft 479 kts 327°
2026-05-05 01:17 15.89238 120.29767 21153 ft 481 kts 328°
2026-05-05 01:17 15.92062 120.27990 21403 ft 481 kts 328°
2026-05-05 01:17 15.94926 120.26190 21582 ft 483 kts 327°
2026-05-05 01:17 15.97799 120.24382 21793 ft 483 kts 328°
2026-05-05 01:18 16.00682 120.22565 21982 ft 485 kts 327°
2026-05-05 01:18 16.03572 120.20744 22165 ft 486 kts 328°
2026-05-05 01:18 16.06472 120.18919 22330 ft 488 kts 327°
2026-05-05 01:18 16.09382 120.17084 22532 ft 490 kts 327°
2026-05-05 01:19 16.12296 120.15244 22778 ft 490 kts 327°
2026-05-05 01:19 16.15216 120.13400 22984 ft 492 kts 327°
2026-05-05 01:19 16.18140 120.11553 23198 ft 493 kts 327°
2026-05-05 01:19 16.21080 120.09695 23406 ft 494 kts 327°
2026-05-05 01:20 16.24021 120.07836 23577 ft 495 kts 327°
2026-05-05 01:20 16.26970 120.05976 23726 ft 496 kts 327°
2026-05-05 01:20 16.29927 120.04111 23896 ft 497 kts 327°
2026-05-05 01:20 16.32880 120.02245 24120 ft 496 kts 327°
2026-05-05 01:21 16.35819 120.00384 24345 ft 495 kts 327°
2026-05-05 01:21 16.38763 119.98522 24565 ft 494 kts 327°
2026-05-05 01:21 16.41699 119.96664 24786 ft 494 kts 327°
2026-05-05 01:21 16.44634 119.94807 25009 ft 493 kts 327°
2026-05-05 01:22 16.47560 119.92957 25245 ft 492 kts 327°
2026-05-05 01:22 16.50487 119.91108 25484 ft 492 kts 327°
2026-05-05 01:22 16.53410 119.89259 25723 ft 491 kts 327°
2026-05-05 01:22 16.56318 119.87410 25961 ft 490 kts 327°
2026-05-05 01:23 16.59231 119.85553 26197 ft 490 kts 327°
2026-05-05 01:23 16.62137 119.83702 26438 ft 489 kts 327°
2026-05-05 01:23 16.65039 119.81855 26687 ft 488 kts 327°
2026-05-05 01:23 16.67932 119.80014 26946 ft 487 kts 327°
2026-05-05 01:24 16.70789 119.78204 27191 ft 486 kts 327°
2026-05-05 01:24 16.73714 119.76354 27431 ft 485 kts 327°
2026-05-05 01:24 16.76597 119.74527 27697 ft 484 kts 326°
2026-05-05 01:24 16.79476 119.72699 27973 ft 483 kts 326°
2026-05-05 01:25 16.82334 119.70879 28230 ft 482 kts 326°
2026-05-05 01:25 16.85159 119.69081 28478 ft 481 kts 326°
2026-05-05 01:25 16.88019 119.67262 28730 ft 481 kts 326°
2026-05-05 01:25 16.90870 119.65445 28977 ft 480 kts 326°
2026-05-05 01:26 16.93719 119.63628 29217 ft 479 kts 326°
2026-05-05 01:26 16.96561 119.61816 29477 ft 479 kts 326°
2026-05-05 01:26 16.99402 119.60004 29728 ft 478 kts 326°
2026-05-05 01:26 17.02238 119.58191 29974 ft 477 kts 326°
2026-05-05 01:27 17.05067 119.56382 30193 ft 476 kts 326°
2026-05-05 01:27 17.07891 119.54578 30421 ft 476 kts 326°
2026-05-05 01:27 17.10710 119.52782 30661 ft 474 kts 326°
2026-05-05 01:27 17.13530 119.50992 30909 ft 473 kts 326°
2026-05-05 01:28 17.16331 119.49207 31166 ft 471 kts 325°
2026-05-05 01:28 17.19115 119.47427 31423 ft 469 kts 325°
2026-05-05 01:28 17.21901 119.45644 31682 ft 468 kts 325°
2026-05-05 01:28 17.24668 119.43872 31940 ft 466 kts 325°
2026-05-05 01:29 17.27428 119.42104 32200 ft 464 kts 325°
2026-05-05 01:29 17.30177 119.40343 32466 ft 463 kts 325°
2026-05-05 01:29 17.32954 119.38566 32738 ft 461 kts 325°
2026-05-05 01:29 17.35652 119.36839 33004 ft 459 kts 325°
2026-05-05 01:30 17.38375 119.35097 33278 ft 458 kts 325°
2026-05-05 01:30 17.41086 119.33364 33551 ft 456 kts 325°
2026-05-05 01:30 17.43789 119.31634 33828 ft 454 kts 325°
2026-05-05 01:30 17.46483 119.29909 33917 ft 455 kts 325°
2026-05-05 01:31 17.51905 119.26423 33934 ft 458 kts 325°
2026-05-05 01:31 17.57343 119.22922 33935 ft 459 kts 325°
2026-05-05 01:32 17.62782 119.19428 33935 ft 459 kts 325°
2026-05-05 01:32 17.67307 119.16517 33930 ft 459 kts 325°
2026-05-05 01:33 17.72750 119.13009 33938 ft 459 kts 325°
2026-05-05 01:33 17.78188 119.09502 33957 ft 459 kts 325°
2026-05-05 01:34 17.83632 119.05997 33955 ft 459 kts 325°
2026-05-05 01:34 17.89075 119.02497 33954 ft 459 kts 325°
2026-05-05 01:35 17.94522 118.98988 33954 ft 459 kts 325°
2026-05-05 01:35 17.99785 118.95238 33959 ft 455 kts 315°
2026-05-05 01:36 18.04136 118.90477 33956 ft 451 kts 310°
2026-05-05 01:36 18.08432 118.85660 33951 ft 452 kts 310°
2026-05-05 01:37 18.12748 118.80851 33969 ft 452 kts 310°
2026-05-05 01:37 18.17056 118.76031 33969 ft 452 kts 310°
2026-05-05 01:38 18.21349 118.71213 33963 ft 451 kts 310°
2026-05-05 01:38 18.25639 118.66395 33962 ft 451 kts 310°
2026-05-05 01:39 18.29901 118.61602 33966 ft 451 kts 310°
2026-05-05 01:39 18.34212 118.56746 33966 ft 451 kts 310°
2026-05-05 01:40 18.38466 118.51953 33970 ft 451 kts 310°
2026-05-05 01:40 18.42754 118.47125 33968 ft 451 kts 310°
2026-05-05 01:41 18.47033 118.42298 33967 ft 451 kts 310°
2026-05-05 01:41 18.51309 118.37470 33977 ft 451 kts 310°
2026-05-05 01:42 18.55578 118.32636 33977 ft 451 kts 310°
2026-05-05 01:42 18.59851 118.27801 33977 ft 450 kts 310°
2026-05-05 01:43 18.64120 118.22977 33977 ft 450 kts 310°
2026-05-05 01:43 18.68393 118.18144 33975 ft 450 kts 310°
2026-05-05 01:44 18.72661 118.13314 33973 ft 451 kts 310°
2026-05-05 01:44 18.76932 118.08469 33971 ft 451 kts 310°
2026-05-05 01:45 18.81204 118.03621 33976 ft 451 kts 310°
2026-05-05 01:45 18.85475 117.98767 33992 ft 451 kts 309°
2026-05-05 01:46 18.89736 117.93920 33992 ft 450 kts 309°
2026-05-05 01:46 18.93974 117.89105 33986 ft 450 kts 309°
2026-05-05 01:47 18.98221 117.84258 33983 ft 450 kts 309°
2026-05-05 01:47 19.02471 117.79409 33985 ft 450 kts 309°
2026-05-05 01:48 19.06728 117.74566 33983 ft 449 kts 309°
2026-05-05 01:48 19.10971 117.69719 33989 ft 449 kts 309°
2026-05-05 01:49 19.15214 117.64879 33987 ft 449 kts 309°
2026-05-05 01:49 19.19457 117.60035 33980 ft 449 kts 309°
2026-05-05 01:50 19.23692 117.55188 33990 ft 449 kts 309°
2026-05-05 01:50 19.27926 117.50331 33979 ft 449 kts 309°
2026-05-05 01:51 19.32170 117.45475 33996 ft 449 kts 309°
2026-05-05 01:51 19.36413 117.40619 33989 ft 448 kts 309°
2026-05-05 01:52 19.40634 117.35769 33987 ft 448 kts 309°
2026-05-05 01:52 19.44863 117.30906 33987 ft 448 kts 309°
2026-05-05 01:53 19.49077 117.26049 33989 ft 448 kts 309°
2026-05-05 01:53 19.53301 117.21183 33987 ft 448 kts 309°
2026-05-05 01:54 19.57522 117.16325 33993 ft 448 kts 309°
2026-05-05 01:54 19.61738 117.11465 34011 ft 448 kts 309°
2026-05-05 01:55 19.65953 117.06608 34005 ft 447 kts 309°
2026-05-05 01:55 19.70132 117.01776 34002 ft 447 kts 308°
2026-05-05 01:56 19.74336 116.96912 34000 ft 447 kts 308°
2026-05-05 01:56 19.78539 116.92048 33999 ft 447 kts 309°
2026-05-05 01:57 19.82747 116.87190 34003 ft 447 kts 309°
2026-05-05 01:57 19.86948 116.82321 34001 ft 447 kts 309°
2026-05-05 01:58 19.91147 116.77448 33997 ft 447 kts 309°
2026-05-05 01:58 19.95343 116.72577 33997 ft 447 kts 309°
2026-05-05 01:59 19.99481 116.67649 33994 ft 445 kts 303°
2026-05-05 01:59 20.02563 116.62013 33998 ft 440 kts 295°
2026-05-05 02:00 20.05409 116.56253 34009 ft 440 kts 295°
2026-05-05 02:00 20.08256 116.50489 34008 ft 440 kts 295°
2026-05-05 02:01 20.11102 116.44716 34011 ft 440 kts 295°
2026-05-05 02:01 20.13940 116.38951 34010 ft 440 kts 295°
2026-05-05 02:02 20.16783 116.33178 34008 ft 440 kts 295°
2026-05-05 02:02 20.19623 116.27416 34009 ft 440 kts 295°
2026-05-05 02:03 20.22465 116.21649 34015 ft 440 kts 295°
2026-05-05 02:03 20.25295 116.15881 34022 ft 439 kts 295°
2026-05-05 02:04 20.28112 116.10117 34019 ft 439 kts 295°
2026-05-05 02:04 20.30927 116.04361 34016 ft 438 kts 295°
2026-05-05 02:05 20.33747 115.98613 34013 ft 438 kts 295°
2026-05-05 02:05 20.36556 115.92862 34014 ft 438 kts 295°
2026-05-05 02:06 20.39369 115.87100 34020 ft 438 kts 295°
2026-05-05 02:06 20.42178 115.81362 34039 ft 437 kts 295°
2026-05-05 02:07 20.44977 115.75625 34036 ft 436 kts 295°
2026-05-05 02:07 20.47768 115.69890 34033 ft 435 kts 295°
2026-05-05 02:08 20.50548 115.64165 34031 ft 435 kts 295°
2026-05-05 02:08 20.53330 115.58433 34029 ft 434 kts 295°
2026-05-05 02:09 20.56673 115.53117 34023 ft 441 kts 309°
2026-05-05 02:09 20.60881 115.48358 34024 ft 441 kts 309°
2026-05-05 02:10 20.65101 115.43604 34024 ft 441 kts 309°
2026-05-05 02:10 20.69333 115.38865 34021 ft 441 kts 309°
2026-05-05 02:11 20.73564 115.34115 34028 ft 441 kts 309°
2026-05-05 02:11 20.77784 115.29358 34022 ft 441 kts 309°
2026-05-05 02:12 20.84112 115.22223 34040 ft 440 kts 309°
2026-05-05 02:13 20.88328 115.17478 34044 ft 440 kts 309°
2026-05-05 02:13 20.92534 115.12729 34038 ft 440 kts 309°
2026-05-05 02:14 20.96737 115.07976 34040 ft 439 kts 309°
2026-05-05 02:14 21.00927 115.03222 34035 ft 439 kts 309°
2026-05-05 02:15 21.05128 114.98475 34037 ft 439 kts 309°
2026-05-05 02:15 21.09326 114.93721 33778 ft 440 kts 309°
2026-05-05 02:15 21.11446 114.91322 32652 ft 445 kts 309°
2026-05-05 02:16 21.13575 114.88910 31788 ft 444 kts 309°
2026-05-05 02:16 21.15689 114.86518 30957 ft 442 kts 309°
2026-05-05 02:16 21.17796 114.84129 30112 ft 439 kts 308°
2026-05-05 02:16 21.19891 114.81748 29078 ft 439 kts 309°
2026-05-05 02:17 21.21951 114.79401 28142 ft 437 kts 309°
2026-05-05 02:17 21.24025 114.77044 27246 ft 433 kts 309°
2026-05-05 02:17 21.26094 114.74698 26246 ft 432 kts 309°
2026-05-05 02:17 21.28163 114.72354 25204 ft 434 kts 309°
2026-05-05 02:18 21.30236 114.69996 24261 ft 435 kts 309°
2026-05-05 02:18 21.32298 114.67644 23347 ft 432 kts 309°
2026-05-05 02:18 21.34347 114.65305 22588 ft 428 kts 309°
2026-05-05 02:18 21.36375 114.62994 21890 ft 424 kts 310°
2026-05-05 02:19 21.38394 114.60697 21204 ft 421 kts 310°
2026-05-05 02:19 21.40398 114.58416 20529 ft 419 kts 310°
2026-05-05 02:19 21.42386 114.56150 19873 ft 416 kts 310°
2026-05-05 02:19 21.44363 114.53897 19219 ft 413 kts 310°
2026-05-05 02:20 21.46325 114.51657 18580 ft 411 kts 310°
2026-05-05 02:20 21.48275 114.49420 17909 ft 409 kts 310°
2026-05-05 02:20 21.49558 114.47947 17475 ft 407 kts 310°
2026-05-05 02:20 21.52136 114.44999 16676 ft 403 kts 310°
2026-05-05 02:21 21.53402 114.43552 16293 ft 401 kts 309°
2026-05-05 02:21 21.55938 114.40651 15513 ft 396 kts 309°
2026-05-05 02:21 21.57184 114.39224 15148 ft 394 kts 310°
2026-05-05 02:21 21.59676 114.36372 14411 ft 389 kts 310°
2026-05-05 02:22 21.60895 114.34975 14078 ft 387 kts 310°
2026-05-05 02:22 21.62729 114.32872 13518 ft 384 kts 310°
2026-05-05 02:22 21.64540 114.30789 13000 ft 380 kts 310°
2026-05-05 02:22 21.66337 114.28726 12480 ft 377 kts 310°
2026-05-05 02:23 21.68134 114.26667 11928 ft 376 kts 310°
2026-05-05 02:23 21.69916 114.24625 11443 ft 372 kts 310°
2026-05-05 02:23 21.71657 114.22635 11307 ft 359 kts 309°
2026-05-05 02:23 21.73348 114.20700 11182 ft 349 kts 309°
2026-05-05 02:24 21.74978 114.18832 11056 ft 336 kts 309°
2026-05-05 02:24 21.76543 114.17032 10933 ft 323 kts 309°
2026-05-05 02:24 21.78049 114.15300 10821 ft 311 kts 309°
2026-05-05 02:24 21.79498 114.13633 10692 ft 298 kts 309°
2026-05-05 02:25 21.80887 114.12038 10373 ft 288 kts 309°
2026-05-05 02:25 21.82242 114.10473 10322 ft 286 kts 308°
2026-05-05 02:25 21.83600 114.08902 10244 ft 288 kts 308°
2026-05-05 02:25 21.84948 114.07345 10134 ft 288 kts 308°
2026-05-05 02:26 21.86320 114.05760 10004 ft 284 kts 309°
2026-05-05 02:26 21.87653 114.04220 9625 ft 283 kts 309°
2026-05-05 02:26 21.88989 114.02679 9228 ft 280 kts 308°
2026-05-05 02:26 21.90319 114.01143 8853 ft 285 kts 310°
2026-05-05 02:27 21.91679 113.99569 8468 ft 289 kts 311°
2026-05-05 02:27 21.93050 113.97986 8082 ft 289 kts 311°
2026-05-05 02:27 21.94415 113.96412 7690 ft 286 kts 311°
2026-05-05 02:27 21.95770 113.94848 7299 ft 285 kts 310°
2026-05-05 02:28 21.97110 113.93296 6916 ft 283 kts 311°
2026-05-05 02:28 21.98450 113.91748 6490 ft 282 kts 311°
2026-05-05 02:28 21.99782 113.90216 6033 ft 278 kts 311°
2026-05-05 02:28 22.01100 113.88698 5649 ft 278 kts 310°
2026-05-05 02:29 22.02441 113.87153 5303 ft 289 kts 312°
2026-05-05 02:29 22.03826 113.85549 4889 ft 292 kts 310°
2026-05-05 02:29 22.05182 113.83974 4512 ft 282 kts 311°
2026-05-05 02:29 22.06494 113.82454 4157 ft 272 kts 312°
2026-05-05 02:30 22.07755 113.80994 3812 ft 264 kts 312°
2026-05-05 02:30 22.08988 113.79564 3477 ft 255 kts 313°
2026-05-05 02:30 22.10193 113.78206 3143 ft 247 kts 318°
2026-05-05 02:30 22.11565 113.77157 2809 ft 238 kts 332°
2026-05-05 02:31 22.13055 113.76404 2426 ft 232 kts 337°
2026-05-05 02:31 22.14444 113.75713 2380 ft 208 kts 337°
2026-05-05 02:31 22.15685 113.75089 2327 ft 187 kts 337°
2026-05-05 02:31 22.16853 113.74504 2289 ft 189 kts 337°
2026-05-05 02:32 22.18087 113.73889 2228 ft 201 kts 338°
2026-05-05 02:32 22.19354 113.73262 2131 ft 200 kts 338°
2026-05-05 02:32 22.20646 113.72753 2040 ft 196 kts 355°
2026-05-05 02:32 22.21972 113.72863 1980 ft 189 kts 22°
2026-05-05 02:33 22.23103 113.73520 1947 ft 185 kts 38°
2026-05-05 02:33 22.24178 113.74275 1816 ft 183 kts 39°
2026-05-05 02:33 22.25205 113.74990 1783 ft 170 kts 38°
2026-05-05 02:33 22.26140 113.75683 1725 ft 156 kts 48°
2026-05-05 02:34 22.26781 113.76558 1675 ft 145 kts 66°
2026-05-05 02:34 22.27138 113.77551 1613 ft 141 kts 75°
2026-05-05 02:34 22.27459 113.78546 1606 ft 139 kts 75°
2026-05-05 02:34 22.27780 113.79541 1602 ft 141 kts 74°
2026-05-05 02:35 22.28106 113.80545 1608 ft 142 kts 74°
2026-05-05 02:35 22.28430 113.81551 1549 ft 141 kts 74°
2026-05-05 02:35 22.28752 113.82548 1410 ft 140 kts 73°
2026-05-05 02:35 22.29068 113.83527 1241 ft 141 kts 72°
2026-05-05 02:36 22.29391 113.84526 1072 ft 142 kts 72°
2026-05-05 02:36 22.29715 113.85525 900 ft 140 kts 73°
2026-05-05 02:36 22.30034 113.86518 720 ft 141 kts 71°
2026-05-05 02:36 22.30357 113.87516 545 ft 138 kts 71°
2026-05-05 02:37 22.30673 113.88495 353 ft 137 kts 70°
2026-05-05 02:37 22.30989 113.89465 143 ft 136 kts 72°
2026-05-05 02:37 22.31292 113.90415 33 ft 127 kts 72°
2026-05-05 02:37 22.31507 113.91087 32 ft 52 kts 71°
2026-05-05 02:38 22.31607 113.91400 31 ft 42 kts 70°
2026-05-05 02:38 22.31655 113.91644 33 ft 24 kts 93°
2026-05-05 02:38 22.31642 113.91761 33 ft 13 kts 101°
2026-05-05 02:38 22.31608 113.91819 32 ft 9 kts 148°
2026-05-05 02:39 22.31553 113.91847 31 ft 9 kts 158°
2026-05-05 02:39 22.31499 113.91868 32 ft 8 kts 161°
2026-05-05 02:39 22.31449 113.91887 31 ft 7 kts 160°
2026-05-05 02:39 22.31404 113.91890 32 ft 6 kts 204°
2026-05-05 02:40 22.31381 113.91858 32 ft 6 kts 234°
2026-05-05 02:40 22.31320 113.91843 32 ft 10 kts 165°
2026-05-05 02:40 22.31255 113.91866 32 ft 10 kts 163°
2026-05-05 02:40 22.31217 113.91832 32 ft 7 kts 250°
2026-05-05 02:41 22.31213 113.91819 32 ft 1 kts 251°
2026-05-05 02:41 22.31211 113.91813 30 ft 1 kts 251°
2026-05-05 02:41 22.31209 113.91807 32 ft 1 kts 251°
2026-05-05 02:41 22.31206 113.91799 32 ft 1 kts 251°
2026-05-05 02:42 22.31205 113.91796 32 ft 0 kts 251°